FW6045 Weather Reports


Display with metric or nautical units.
time (UTC)temp
F
wind
direction
speed
MPH
gust
MPH
rain 1hr
in
rain 24hr
in
rain mn
in
humidity
%
barometer
mb
20260508121556 48 190 8.0 14.0 0.00 0.00 0.00 70 1014.5
20260508120055 47 222 5.0 7.0 0.00 0.00 0.00 73 1014.3
20260508114603 46 218 4.0 7.0 0.00 0.00 0.00 75 1014.4
20260508113126 45 191 3.0 6.0 0.00 0.00 0.00 77 1014.0
20260508111601 45 192 5.0 8.0 0.00 0.00 0.00 77 1014.0
20260508110057 45 197 6.0 9.0 0.00 0.00 0.00 78 1013.9
20260508104607 45 182 6.0 9.0 0.00 0.00 0.00 76 1013.8
20260508103107 46 199 7.0 9.0 0.00 0.00 0.00 73 1013.7
20260508101559 46 204 6.0 9.0 0.00 0.00 0.00 75 1013.7
20260508100058 46 194 7.0 10.0 0.00 0.00 0.00 73 1013.7
20260508094609 46 189 7.0 9.0 0.00 0.00 0.00 71 1013.8
20260508093107 46 199 5.0 6.0 0.00 0.00 0.00 72 1013.9
20260508091559 46 194 4.0 6.0 0.00 0.00 0.00 71 1013.7
20260508090107 46 222 4.0 6.0 0.00 0.00 0.00 72 1013.5
20260508084558 46 229 4.0 7.0 0.00 0.00 0.00 71 1013.7
20260508083100 46 233 5.0 7.0 0.00 0.00 0.00 70 1013.7
20260508081621 47 236 5.0 8.0 0.00 0.00 0.00 69 1013.6
20260508080108 46 236 5.0 9.0 0.00 0.00 0.00 71 1013.7
20260508074607 47 235 6.0 8.0 0.00 0.00 0.00 67 1013.7
20260508073106 48 206 7.0 10.0 0.00 0.00 0.00 66 1013.4
20260508071602 48 219 4.0 6.0 0.00 0.00 0.00 65 1013.7
20260508070108 48 221 4.0 7.0 0.00 0.00 0.00 66 1013.9
20260508064609 48 219 5.0 9.0 0.00 0.00 0.00 65 1014.0
20260508063113 48 221 5.0 9.0 0.00 0.00 0.00 67 1014.2
20260508061603 49 221 5.0 8.0 0.00 0.00 0.00 65 1014.3
20260508054627 49 213 6.0 11.0 0.00 0.00 0.00 64 1014.5
20260508053056 50 209 6.0 10.0 0.00 0.00 0.00 63 1014.5
20260508051559 49 220 5.0 9.0 0.00 0.00 0.00 63 1014.5
20260508050056 49 217 5.0 8.0 0.00 0.00 0.00 63 1014.4
20260508044555 49 213 6.0 9.0 0.00 0.00 0.00 63 1014.4
20260508043058 49 232 6.0 8.0 0.00 0.00 0.00 65 1014.5
20260508041555 49 229 5.0 7.0 0.00 0.00 0.00 65 1014.6
20260508040104 50 217 4.0 8.0 0.00 0.00 0.00 64 1014.5
20260508034555 51 213 5.0 7.0 0.00 0.00 0.00 62 1014.5
20260508033058 51 197 4.0 7.0 0.00 0.00 0.00 64 1014.6
20260508031603 52 203 5.0 7.0 0.00 0.00 0.00 58 1014.5
20260508030104 52 196 4.0 7.0 0.00 0.00 0.00 61 1014.6
20260508024556 52 176 5.0 7.0 0.00 0.00 0.00 63 1014.5
20260508023057 53 171 5.0 8.0 0.00 0.00 0.00 58 1014.4
20260508021605 54 172 5.0 7.0 0.00 0.00 0.00 56 1014.2
20260508020100 55 179 4.0 6.0 0.00 0.00 0.00 51 1014.3
20260508014557 56 209 4.0 5.0 0.00 0.00 0.00 45 1014.2
20260508013058 56 222 4.0 5.0 0.00 0.00 0.00 44 1014.0
20260508011606 57 227 3.0 4.0 0.00 0.00 0.00 44 1013.9
20260508010108 57 227 3.0 4.0 0.00 0.00 0.00 43 1013.8
20260508004601 57 259 2.0 4.0 0.00 0.00 0.00 44 1013.8
20260508003102 58 264 2.0 3.0 0.00 0.00 0.00 43 1013.7
20260508001600 58 264 2.0 3.0 0.00 0.00 0.00 44 1013.4
20260508000120 59 264 2.0 7.0 0.00 0.00 0.00 42 1013.4
20260507234601 59 268 2.0 7.0 0.00 0.00 0.00 41 1013.4
20260507233103 59 317 3.0 8.0 0.00 0.00 0.00 40 1013.3
20260507231606 59 317 6.0 11.0 0.00 0.00 0.00 41 1013.4
20260507224559 59 283 4.0 10.0 0.00 0.00 0.00 42 1013.6
20260507223103 60 286 3.0 9.0 0.00 0.00 0.00 43 1013.6
20260507221603 59 346 6.0 12.0 0.00 0.00 0.00 43 1013.5
20260507220057 59 330 10.0 18.0 0.00 0.00 0.00 41 1013.5
20260507214558 60 285 8.0 13.0 0.00 0.00 0.00 44 1013.7
20260507213057 59 281 7.0 17.0 0.00 0.00 0.00 42 1013.8
20260507211601 58 327 7.0 16.0 0.00 0.00 0.00 42 1013.7
20260507210058 58 298 8.0 16.0 0.00 0.00 0.00 41 1013.6
20260507204558 59 325 4.0 15.0 0.00 0.00 0.00 40 1013.6
20260507203058 59 279 9.0 16.0 0.00 0.00 0.00 42 1013.6
20260507201557 58 314 9.0 14.0 0.00 0.00 0.00 41 1013.6
20260507200103 58 306 11.0 19.0 0.00 0.00 0.00 40 1013.6
20260507194556 58 355 7.0 16.0 0.00 0.00 0.00 40 1013.6
20260507193101 58 332 7.0 19.0 0.00 0.00 0.00 41 1013.7
20260507191558 57 317 10.0 20.0 0.00 0.00 0.00 40 1013.9
20260507190057 57 303 12.0 19.0 0.00 0.00 0.00 41 1013.9
20260507184558 57 315 10.0 17.0 0.00 0.00 0.00 42 1013.8
20260507183104 57 309 9.0 16.0 0.00 0.00 0.00 42 1013.8
20260507181557 57 26 4.0 19.0 0.00 0.00 0.00 45 1013.8
20260507180107 56 355 7.0 21.0 0.00 0.00 0.00 43 1014.0
20260507174633 55 307 8.0 18.0 0.00 0.00 0.00 42 1014.1
20260507173111 55 305 10.0 16.0 0.00 0.00 0.00 44 1014.4
20260507171649 56 337 6.0 15.0 0.00 0.00 0.00 45 1014.6
20260507170059 55 317 13.0 19.0 0.00 0.00 0.00 43 1014.9
20260507164558 54 342 9.0 17.0 0.00 0.00 0.00 45 1015.2
20260507163059 54 323 10.0 18.0 0.00 0.00 0.00 44 1015.2
20260507161558 54 322 11.0 17.0 0.00 0.00 0.00 44 1015.1
20260507160117 54 264 9.0 15.0 0.00 0.00 0.00 44 1015.2
20260507154559 53 49 7.0 19.0 0.00 0.00 0.00 45 1015.2
20260507153056 53 321 10.0 16.0 0.00 0.00 0.00 43 1015.1
20260507151601 53 246 3.0 17.0 0.00 0.00 0.00 50 1015.0
20260507150057 53 331 5.0 11.0 0.00 0.00 0.00 48 1015.0
20260507144557 52 319 8.0 17.0 0.00 0.00 0.00 47 1015.0
20260507143116 51 338 8.0 16.0 0.00 0.00 0.00 47 1015.0
20260507141626 51 297 9.0 19.0 0.00 0.00 0.00 48 1015.0
20260507140111 50 360 9.0 17.0 0.00 0.00 0.00 50 1015.1
20260507134600 50 332 3.0 14.0 0.00 0.00 0.00 54 1015.0
20260507133105 50 294 6.0 12.0 0.00 0.00 0.00 53 1014.9
20260507131619 49 311 3.0 6.0 0.00 0.00 0.00 59 1015.0
20260507130106 48 309 3.0 6.0 0.00 0.00 0.00 61 1015.0
20260507124603 47 326 3.0 6.0 0.00 0.00 0.00 63 1014.9
20260507123105 47 337 4.0 8.0 0.00 0.00 0.00 64 1014.9